Showing default

PROGRESS MS-31, 64751

Orbit data source: Space-Track

PROGRESS MS-31, 64751 is a Commonwealth of Independent States-origin payload satellite in LEO that was launched on Thu, 03 Jul 2025 UTC launched from the Tyuratam Missile And Space Complex (TTMTR). Payload-class satellites include a variety of spacecraft equipped with specific instruments for various scientific and technological missions. These include communications satellites like Starlink; space stations such as the ISS; scientific satellites like the Hubble; Earth observation satellites from companies like Planet Labs, Umbra, and HawkEye 360; GPS; miniature CubeSats for education and research; and military/defense satellites.

Loading next visibility...
Identifier
64751, 2025-145A
Orbit
LEO
Last TLE update
2 days ago
Origin
Flag of CISCIS
Manufacturer
Unknown
Mission
Operational spacecraft
Bus & Motor
Unknown
Mass
Unknown
Launch date (UTC)
2025-07-03 (3 days ago)
Launch vehicle
Unknown
Launch site
Tyuratam Missile And Space Complex (TTMTR)
Object type
Payload
Rocket body
Debris
Shape & HBR
Unknown
Radar Cross Section
RCS unknown

Expand to show TLE details & history

TLE from 2 days ago
0 PROGRESS MS-31
1 64751U 25145A   25185.00519802 -.00000666  00000-0  00000+0 0  9994
2 64751  51.6368 224.0969 0001333 195.6618 243.8119 15.77709686    06
Epoch: 2025-07-04T00:07Z
TLE epoch observation values (Epoch: 2025-07-04T00:07:29.108Z)
Latitude
50.5873°
Longitude
13.2551°
Altitude
343.092 km
Speed
7.709 km/s
True Right ascension
19h 49m 33s
True Declination
50° 24' 29"
Sunlit
Object was in daylight at epoch
Visualization orbit readout
Latitude
45.4032°
Longitude
-17.20535°
Altitude
342.191 km
Speed
7.709 km/s
Apparent Right ascension
20h 31m 07s
Apparent Declination
5° 21' 30"
Sunlit
Object is in full shadow
Visualization observer readout
Local Sidereal Time
11:07:37
Azimuth
47.923° ENE
Elevation
-32.173°
Doppler factor
1
Orbital elements
Apogee altitude
338.341 km
Perigee altitude
336.551 km
Semi-major axis
6,715.583 km
Eccentricity
0.00013
Inclination
51.6368°
RAAN
224.0969°
Arg. of periapsis
195.6618°
True anomaly
Unknown
Mean anomaly
243.8119°
Eccentric anomaly
Unknown
Mean motion
3.94382 °/min
Orbital period
91.28 mins
BSTAR
0
Loading maneuver chart data...
Loading SW <> Apogee altitude chart data...
Loading historical data...
Loading historical data...
Loading historical data...
Loading historical data...
Loading historical data...
Loading historical data...
Loading historical data...
Other satellites on launch #145 in the year 2025 (2025-07-03 UTC)

PROGRESS MS-31 Visibility forecast

Observer location: undefined°, undefined°

Span
Click to sort rows by Start time (UTC) header in descending order
Start Az.
Max El. time (UTC)
Max El. Az.
Max El.
End time (UTC)
End Az.
4 mins2025-07-06 11:35:18.476Z292.884° NW2025-07-06 11:37:18.476Z174.698° S36.463°2025-07-06 11:39:18.476Z141.335° SSE
|